DW0479 Weather Reports


Display with metric or nautical units.
time (UTC)temp
F
wind
direction
speed
MPH
gust
MPH
rain 1hr
in
rain 24hr
in
rain mn
in
humidity
%
barometer
mb
20200406061428 73 51 0.0 0.0 0.00 0.00 0.00 84 1014.7
20200406060918 73 51 0.0 1.0 0.00 0.00 0.00 84 1014.9
20200406060432 72 51 0.0 1.0 0.00 0.00 0.00 84 1014.9
20200406055905 72 51 0.0 1.0 0.00 0.00 0.00 84 1014.9
20200406055403 72 51 0.0 2.0 0.00 0.00 0.00 84 1015.0
20200406054859 72 51 1.0 3.0 0.00 0.00 0.00 84 1015.0
20200406054359 72 51 1.0 3.0 0.00 0.00 0.00 84 1015.0
20200406053850 72 42 1.0 2.0 0.00 0.00 0.00 84 1015.1
20200406053347 72 333 1.0 2.0 0.00 0.00 0.00 84 1015.3
20200406052843 72 332 1.0 3.0 0.00 0.00 0.00 84 1015.5
20200406052335 72 333 1.0 3.0 0.00 0.00 0.00 84 1015.6
20200406051829 71 332 1.0 2.0 0.00 0.00 0.00 84 1015.7
20200406051333 71 333 1.0 2.0 0.00 0.00 0.00 84 1015.7
20200406050827 71 332 1.0 2.0 0.00 0.00 0.00 84 1015.8
20200406050327 71 333 1.0 2.0 0.00 0.00 0.00 83 1015.7
20200406045825 71 333 1.0 2.0 0.00 0.00 0.00 83 1015.7
20200406045327 71 332 1.0 2.0 0.00 0.00 0.00 83 1015.7
20200406044825 71 332 1.0 2.0 0.00 0.00 0.00 83 1015.8
20200406044327 71 332 1.0 2.0 0.00 0.00 0.00 83 1015.8
20200406043818 71 333 1.0 3.0 0.00 0.00 0.00 84 1015.8
20200406043321 71 333 2.0 4.0 0.00 0.00 0.00 84 1015.7
20200406042817 71 333 2.0 4.0 0.00 0.00 0.00 84 1015.7
20200406042311 71 331 1.0 3.0 0.00 0.00 0.00 84 1015.5
20200406041809 71 308 1.0 2.0 0.00 0.00 0.00 83 1015.3
20200406041300 71 307 0.0 2.0 0.00 0.00 0.00 84 1015.2
20200406040759 72 306 0.0 1.0 0.00 0.00 0.00 84 1015.3
20200406040255 72 306 0.0 2.0 0.00 0.00 0.00 83 1015.3
20200406035746 72 306 1.0 3.0 0.00 0.00 0.00 83 1015.3
20200406035242 72 306 1.0 3.0 0.00 0.00 0.00 83 1015.4
20200406034738 73 294 2.0 4.0 0.00 0.00 0.00 83 1015.5
20200406034235 73 309 2.0 4.0 0.00 0.00 0.00 83 1015.5
20200406033730 72 325 2.0 4.0 0.00 0.00 0.00 83 1015.5
20200406033232 72 314 2.0 3.0 0.00 0.00 0.00 83 1015.5
20200406032726 72 163 1.0 2.0 0.00 0.00 0.00 82 1015.4
20200406032225 73 158 0.0 1.0 0.00 0.00 0.00 82 1015.4
20200406031719 73 158 0.0 1.0 0.00 0.00 0.00 82 1015.4
20200406031216 73 158 0.0 0.0 0.00 0.00 0.00 81 1015.4
20200406030709 73 158 0.0 0.0 0.00 0.00 0.00 81 1015.4
20200406030207 74 158 0.0 1.0 0.00 0.00 0.00 81 1015.4
20200406025659 74 158 0.0 1.0 0.00 0.00 0.00 80 1015.4
20200406025152 74 158 0.0 1.0 0.00 0.00 0.00 80 1015.3
20200406024650 74 158 0.0 1.0 0.00 0.00 0.00 80 1015.2
20200406024144 74 158 1.0 3.0 0.00 0.00 0.00 80 1015.1
20200406023648 74 158 1.0 4.0 0.00 0.00 0.00 81 1014.9
20200406023144 74 159 1.0 4.0 0.00 0.00 0.00 81 1014.9
20200406022646 74 159 0.0 0.0 0.00 0.00 0.00 80 1014.9
20200406022136 74 159 0.0 0.0 0.00 0.00 0.00 80 1015.0
20200406021620 74 159 0.0 0.0 0.00 0.00 0.00 79 1015.0
20200406021122 74 159 0.0 0.0 0.00 0.00 0.00 79 1015.0
20200406020620 75 159 0.0 0.0 0.00 0.00 0.00 78 1014.9
20200406020120 75 159 0.0 0.0 0.00 0.00 0.00 78 1014.9
20200406015619 75 159 0.0 0.0 0.00 0.00 0.00 78 1014.8
20200406015118 75 159 0.0 0.0 0.00 0.00 0.00 77 1014.6
20200406014617 75 159 0.0 0.0 0.00 0.00 0.00 77 1014.5
20200406014116 75 159 0.0 0.0 0.00 0.00 0.00 77 1014.6
20200406013615 76 159 0.0 0.0 0.00 0.00 0.00 76 1014.6
20200406013115 76 159 0.0 3.0 0.00 0.00 0.00 76 1014.5
20200406012615 76 159 1.0 3.0 0.00 0.00 0.00 76 1014.4
20200406012113 76 159 1.0 5.0 0.00 0.00 0.00 76 1014.3
20200406011608 76 159 2.0 5.0 0.00 0.00 0.00 75 1014.3
20200406011112 76 156 2.0 5.0 0.00 0.00 0.00 75 1014.2
20200406010559 76 176 2.0 5.0 0.00 0.00 0.00 75 1014.2
20200406010049 76 170 2.0 4.0 0.00 0.00 0.00 74 1014.2
20200406005536 77 203 2.0 5.0 0.00 0.00 0.00 73 1014.2
20200406005029 77 197 3.0 7.0 0.00 0.00 0.00 73 1014.1
20200406004527 77 175 3.0 7.0 0.00 0.00 0.00 73 1014.1
20200406004022 77 188 3.0 7.0 0.00 0.00 0.00 72 1014.0
20200406003525 77 185 2.0 5.0 0.00 0.00 0.00 72 1014.1
20200406003018 78 175 3.0 6.0 0.00 0.00 0.00 72 1014.0
20200406002513 78 169 4.0 6.0 0.00 0.00 0.00 71 1013.9
20200406002007 78 174 3.0 8.0 0.00 0.00 0.00 71 1013.9
20200406001504 78 154 3.0 8.0 0.00 0.00 0.00 71 1014.0
20200406000957 78 187 3.0 8.0 0.00 0.00 0.00 70 1014.0
20200406000453 78 167 3.0 6.0 0.00 0.00 0.00 70 1014.0
20200405235953 78 190 3.0 6.0 0.00 0.00 0.00 69 1014.0
20200405235452 79 194 3.0 6.0 0.00 0.00 0.00 69 1014.0
20200405234947 79 165 3.0 7.0 0.00 0.00 0.00 68 1013.9
20200405234533 79 188 4.0 7.0 0.00 0.00 0.00 68 1014.0
20200405233941 79 152 4.0 9.0 0.00 0.00 0.00 68 1013.9
20200405233441 80 131 4.0 9.0 0.00 0.00 0.00 68 1013.9
20200405232939 80 167 4.0 7.0 0.00 0.00 0.00 68 1013.8
20200405232441 80 158 5.0 10.0 0.00 0.00 0.00 67 1013.8
20200405231932 80 178 5.0 10.0 0.00 0.00 0.00 67 1013.7
20200405231421 80 165 5.0 12.0 0.00 0.00 0.00 67 1013.7
20200405230911 81 179 5.0 12.0 0.00 0.00 0.00 66 1013.6
20200405230406 81 168 5.0 11.0 0.00 0.00 0.00 66 1013.7
20200405225850 81 205 6.0 11.0 0.00 0.00 0.00 65 1013.7
20200405225339 81 210 6.0 11.0 0.00 0.00 0.00 64 1013.6
20200405224831 82 136 6.0 11.0 0.00 0.00 0.00 64 1013.6
20200405224332 82 189 7.0 12.0 0.00 0.00 0.00 64 1013.5
20200405223833 82 165 7.0 12.0 0.00 0.00 0.00 63 1013.5
20200405223327 82 148 5.0 10.0 0.00 0.00 0.00 63 1013.6
20200405222829 82 177 5.0 11.0 0.00 0.00 0.00 62 1013.6
20200405222323 82 155 6.0 11.0 0.00 0.00 0.00 62 1013.6
20200405221823 82 204 7.0 14.0 0.00 0.00 0.00 62 1013.6
20200405063127 67 140 0.0 0.0 0.00 0.00 0.00 83 1013.6
20200405062618 67 139 0.0 0.0 0.00 0.00 0.00 83 1013.7
20200405062110 67 140 0.0 0.0 0.00 0.00 0.00 82 1013.6